Regional Weather Roundup
Issued by NWS

Home | Current Version | Previous Version | Text Only | Print | Product List | Glossary Off
Versions: 1 2 3 4 5 6 7 8 9 10 11 12 13 14 15 16 17 18 19 20 21 22 23 24 25 26 27 28 29 30 31 32 33 34 35 36 37 38 39 40 41 42 43 44 45 46 47 48 49 50

000
ASUS43 KLOT 300512
RWRIL

ILLINOIS REGIONAL WEATHER ROUNDUP
NATIONAL WEATHER SERVICE CHICAGO/ROMEOVILLE IL
1200 AM CDT SUN AUG 30 2015

NOTE: "FAIR" INDICATES FEW OR NO CLOUDS BELOW 12,000 FEET WITH NO
SIGNIFICANT WEATHER AND/OR OBSTRUCTIONS TO VISIBILITY.

* THESE STATIONS ARE NOT UNDER NWS QUALITY CONTROL. THEY ALSO MAY NOT
  REPORT WEATHER SUCH AS PRECIPITATION OR FOG.

ILZ001-002-007-009-015-016-024-300600-
NORTHWEST ILLINOIS

CITY           SKY/WX    TMP DP  RH WIND       PRES   REMARKS
MOLINE         FOG       62  61  96 CALM      30.03S VSB<1/4
STERLING*      CLOUDY    68  64  88 N3        30.02R
SAVANNA*       CLOUDY    67  64  87 CALM      30.04S
$$

ILZ003-004-008-010-011-017-018-300600-
NORTH CENTRAL ILLINOIS

CITY           SKY/WX    TMP DP  RH WIND       PRES   REMARKS
ROCKFORD       CLOUDY    67  63  87 N3        30.05F
FREEPORT*      CLOUDY    64  63  96 CALM      30.06F FOG
ROCHELLE*      CLOUDY    65  64  96 CALM      30.04F FOG
DE KALB*       CLOUDY    64  64  98 CALM      30.05S FOG
PERU*          CLOUDY    68  66  92 CALM      30.04S FOG
$$

ILZ005-006-012>014-019>023-300600-
NORTHEAST ILLINOIS

CITY           SKY/WX    TMP DP  RH WIND       PRES   REMARKS
CHICAGO-OHARE  CLOUDY    66  64  93 N6        30.03S FOG
CHICAGO-MIDWAY CLOUDY    69  65  86 N3        30.03S FOG
AURORA         CLOUDY    68  65  90 CALM      30.04S FOG
LANSING*       CLOUDY    67  66  94 N3        30.03S FOG
JOLIET*        CLOUDY    69  68  96 CALM      30.03S FOG
WAUKEGAN       FOG       63  63 100 CALM      30.04S VSB 1/2
DUPAGE AIRPORT CLOUDY    67  64  90 N5        30.02F FOG
KANKAKEE*      CLOUDY    70  70  99 CALM      30.03S FOG
WHEELING       CLOUDY    65  63  93 N6        30.04F FOG
MORRIS*        CLOUDY    68  67  95 CALM      30.02F FOG
ROMEOVILLE*    MOCLDY    66  65  97 E3        30.03F FOG
NORTHERLY ISL    N/A     62  60  93 NW5         N/A
$$

LMZ740>746-300600-
SOUTHERN LAKE MICHIGAN

STATION/POSITION SKY/WX   TEMP    WIND        PRES    VSBY  WAVE
                          AIR SEA DIR/SP/G                  HT/PER
                          (F)     (DEG/KT/KT) (MB)    (MI)  (FT/S)
SOUTHERN BUOY              68 68   60/  2/  2 1016.1F
WILMETTE HARBOR            58 56  140/  8/ 12   N/A           1/ 3
HARRISON CRIB              61     330/ 10/ 11   N/A
BURNHAM HARBOR             62     350/  4/  8   N/A
MICHIGAN CITY              69     200/  4/  4   N/A
MICHIGAN CITY 6N           69 71  350/  4/  6   N/A           1
ST. JOSEPH                 70 70  270/  2/  4   N/A           1
$$

ILZ025>027-034>036-040-047-049-050-058-095>099-300600-
WEST-CENTRAL ILLINOIS

CITY           SKY/WX    TMP DP  RH WIND       PRES   REMARKS
QUINCY         CLOUDY    72  69  90 NE5       30.02S
GALESBURG*     PTCLDY    65  65  97 NE3       30.03F FOG
MACOMB*        PTCLDY    68  67  97 E5        30.05S FOG
JACKSONVILLE*  CLOUDY    75  70  86 SE5       30.02S
PITTSFIELD*    CLOUDY    74  70  87 CALM      30.03S
$$

ILZ028>032-037-038-041>044-048-051>054-059>061-300600-
CENTRAL ILLINOIS

CITY           SKY/WX    TMP DP  RH WIND       PRES   REMARKS
PONTIAC        CLOUDY    70  69  96 CALM      30.04R
BLOOMINGTON    MOCLDY    73  70  91 CALM      30.04S
DECATUR        CLOUDY    73  68  84 SW3       30.03S
PEORIA         CLOUDY    73  68  84 NE6       30.02F
LACON*         CLOUDY    69  66  92 CALM      30.02S
LINCOLN*       CLOUDY    73  68  84 CALM      30.02S
SPRINGFIELD    CLOUDY    73  68  84 CALM      30.02S
TAYLORVILLE    PTCLDY    68  64  88 SW5       30.03S
$$

ILZ033-039-045-046-055>057-062-063-300600-
EAST-CENTRAL ILLINOIS

CITY           SKY/WX    TMP DP  RH WIND       PRES   REMARKS
CHAMPAIGN      CLOUDY    68  65  90 CALM      30.04S FOG
RANTOUL*       CLOUDY    71  69  92 CALM      30.04S
MATTOON          N/A     71  66  84 S7        30.03F
PARIS*         MOCLDY    69  67  94 S5        30.05S
$$

ILZ079-100>102-300600-
SOUTHWEST ILLINOIS

CITY           SKY/WX    TMP DP  RH WIND       PRES   REMARKS
ALTON          CLOUDY    68  67  94 CALM      30.03R
BELLEVILLE     CLOUDY    72  72  99 CALM      30.02S
CAHOKIA*       CLOUDY    74  68  81 S5        30.01F
SPARTA*        CLOUDY    72  68  88 S5        30.05F
$$

ILZ064>066-069>071-074>076-080>082-084>086-088>090-092>094-300600-
SOUTH-CENTRAL ILLINOIS

CITY           SKY/WX    TMP DP  RH WIND       PRES   REMARKS
CARBONDALE     LGT RAIN  71  69  93 W5        30.05F
CAIRO*         CLOUDY    72  72 100 CALM      30.04R
EFFINGHAM*     MOCLDY    68  65  90 E3        30.06S
MARION         CLOUDY    72  66  83 CALM      30.05F
MT. VERNON     CLOUDY    70  64  83 CALM      30.05F
SALEM*         DRIZZLE   73  65  77 S7        30.04S
METROPOLIS*    CLOUDY    73  72  99 CALM      30.05S
$$

ILZ067-068-072-073-078-083-087-091-300600-
SOUTHEAST ILLINOIS

CITY           SKY/WX    TMP DP  RH WIND       PRES   REMARKS
LAWRENCEVILLE  CLOUDY    70  69  97 CALM      30.05S
FLORA*         CLOUDY    68  66  94 CALM      30.05S
FAIRFIELD*     CLOUDY    69  68  98 CALM      30.05R FOG
HARRISBURG*    CLOUDY    72  70  92 CALM      30.05F
ROBINSON*      CLOUDY    69  68  96 CALM      30.06R
CARMI*         CLOUDY    70  69  97 NW5       30.04S
$$

ABBREVIATIONS USED IN REMARKS
   TC - TEMPERATURE IN CELSIUS
  WCI - WIND CHILL INDEX
   HX - HEAT INDEX
  VSB - VISIBILITY
$$




USA.gov is the U.S. government's official web portal to all federal, state and local government web resources and services.